カタログに戻る

SCOUT A R/B

運用中PO
NORAD 4515·ROCKET BODY·🇺🇸 United States

打ち上げ Aug 27, 1970 から Vandenberg Space Force Base

Loading…

次のパス (今後24時間)

TLE

最新Source: Space-Track

元期: Sep 14, 2026, 21:50 UTC

1 04515U 70067B   26257.90991348  .00000075  00000-0  96820-4 0  9991
2 04515  90.0188 234.4307 0171469 307.5915  78.4743 13.49683942757443

AllMySatでSCOUT A R/Bをリアルタイム追跡

Download on the App Store